World > North America > United States > New York

West Coxsackie, New York Regional Weather

Lat: 42.36N, Lon: 73.82W
Wx Zone: NYZ059Web Search
West Coxsackie Weather Warning NWS WEATHER ALERT FOR THE WEST COXSACKIE, NY AREA - SEVERE THUNDERSTORM WATCH Issued: 352 PM EDT Mon Jun 21 2021 West Coxsackie Weather Warning  

Helpful Tip: Abbreviated, 7 Day, 14 Day Forecasts. There is a weather forecast for every taste.

Feedback


°F Click to change West Coxsackie hourly weather to Imperial units.Click to change West Coxsackie hourly weather to Metric units. °C
West Coxsackie Weather Map
UTC Time: 6/21/2021, 20:02
Your Time:

West Coxsackie, NY Regional Weather

Expires:202106212000;;632904
ASUS41 KALY 211910
RWRALY

NEW YORK STATE HOURLY WEATHER ROUNDUP
NATIONAL WEATHER SERVICE ALBANY NY
300 PM EDT MON JUN 21 2021

NOTE: "FAIR" INDICATES FEW OR NO CLOUDS BELOW 12,000 FEET WITH NO
SIGNIFICANT WEATHER AND/OR NO OBSTRUCTIONS TO VISIBILITY.


NYZ032-033-038>043-046>054-057>066-NYZ062>081-082-084-212000-
EAST

  
CITY           SKY/WX    TMP DP  RH WIND       PRES   REMARKS
ALBANY         MOSUNNY   86  70  58 SE22G31   29.55F HX  90           
GLENS FALLS    MOSUNNY   89  70  53 S16G25    29.51F HX  94           
POUGHKEEPSIE   PTSUNNY   87  71  58 SW12G20   29.63F HX  93           
NEWBURGH       PTSUNNY   84  70  61 SW14G21   29.66F                  
MONTGOMERY     MOSUNNY   85  72  65 S10       29.63F HX  91           
WHITE PLAINS   MOSUNNY   82  72  71 S9G18     29.68S                  
ISLIP          PTSUNNY   79  73  82 SW15      29.70S                  
NEW YORK CITY  PTSUNNY   86  70  58 S12       29.66F HX  90           
CENTRAL PARK   MOSUNNY   84  71  65 CALM      29.69F                  
$$


SKY/WX - Weather  TMP - Temperature  DP - Dew Point  RH - Relative Humidity
WIND - Wind Direction/Speed PRES - Barometric Pressure VSB - Visibility
WCI - Wind Chill Index E13G22 Wind - East Wind 13 mph/Gusts of 22 mph